This demonstration page uses our WeatherBlox Daily Observations layout. Learn more.

Left ArrowRight Arrow

44.89941, -97.11507

Hourly Observations for November 26, 2019

Temp ( °F °C ) Dew Point ( °F °C ) Humidity (%) Winds ( mph kmh ) Pressure ( in mb ) Visibility ( mi km ) Precip ( " mm )
12:53 am 00:53 Cloudy 30 -1.1 26 -3.3 85 85 Calm 29.87 1012 10 16 0.00 0.00
1:53 am 01:53 Cloudy 30 -1.1 26 -3.3 85 85 NW 3 6 29.88 1012 10 16 0.00 0.00
2:41 am 02:41 Cloudy 28 -2.2 26 -3.3 92 92 N 6 9 29.90 1013 10 16 0.00 0.00
2:53 am 02:53 Cloudy 28 -2.2 25 -3.9 88 88 N 7 11 29.86 1011 10 16 0.00 0.00
3:53 am 03:53 Mostly Cloudy 27 -2.8 25 -3.9 92 92 N 7 11 29.85 1011 10 16 0.00 0.00
4:08 am 04:08 Partly Cloudy 26 -3.3 24 -4.4 92 92 N 7 11 29.90 1013 10 16 0.00 0.00
4:53 am 04:53 Clear 26 -3.3 24 -4.4 92 92 Calm 29.86 1011 10 16 0.00 0.00
5:29 am 05:29 Mostly Cloudy 26 -3.3 24 -4.4 92 92 N 3 6 29.91 1013 10 16 0.00 0.00
5:53 am 05:53 Mostly Cloudy 25 -3.9 24 -4.4 96 96 N 3 6 29.87 1011 10 16 0.00 0.00
6:53 am 06:53 Cloudy 27 -2.8 25 -3.9 92 92 NE 6 9 29.85 1011 10 16 0.00 0.00
7:53 am 07:53 Cloudy 29 -1.7 25 -3.9 85 85 NNE 12 19 29.86 1011 10 16 0.00 0.00
8:53 am 08:53 Cloudy 30 -1.1 24 -4.4 79 79 NE 9 15 29.88 1012 10 16 0.00 0.00
9:53 am 09:53 Cloudy 30 -1.1 23 -5 75 75 NNE 13 20 29.91 1013 10 16 0.00 0.00
10:53 am 10:53 Cloudy 31 -0.6 23 -5 72 72 NNE 8 13 29.92 1013 10 16 0.00 0.00
11:53 am 11:53 Cloudy 30 -1.1 24 -4.4 79 79 NNE 9 15 29.91 1013 10 16 0.00 0.00
12:53 pm 12:53 Cloudy 30 -1.1 24 -4.4 79 79 NNE 12 19 29.88 1012 10 16 0.00 0.00
1:12 pm 13:12 Cloudy 30 -1.1 25 -3.9 82 82 NNE 10 17 29.90 1012 10 16 0.00 0.00
1:53 pm 13:53 Cloudy 30 -1.1 25 -3.9 82 82 NNE 13 20 29.86 1011 10 16 0.00 0.00
2:53 pm 14:53 Cloudy 29 -1.7 23 -5 78 78 N 18 30 29.84 1010 10 16 0.00 0.00
3:12 pm 15:12 Cloudy 29 -1.7 23 -5 78 78 NNE 20 31 29.86 1011 10 16 0.00 0.00
3:51 pm 15:51 Cloudy 28 -2 21 -6 74 74 NNE 18 30 29.85 1011 10 16 0.00 0.00
3:53 pm 15:53 Cloudy 29 -1.7 23 -5 78 78 NNE 21 33 29.83 1010 10 16 0.00 0.00
4:53 pm 16:53 Cloudy 28 -2.2 23 -5 81 81 NNE 20 31 29.82 1010 10 16 0.00 0.00
5:53 pm 17:53 Cloudy 28 -2.2 24 -4.4 85 85 N 15 24 29.83 1010 10 16 0.00 0.00
6:16 pm 18:16 Cloudy with Light Snow 28 -2.2 25 -3.9 88 88 N 18 30 29.85 1011 2 3 0.00 0.00
6:28 pm 18:28 Cloudy with Light Snow 28 -2.2 25 -3.9 88 88 N 17 28 29.84 1011 2 3 0.00 0.00
6:53 pm 18:53 Cloudy with Light Snow 28 -2.2 26 -3.3 92 92 N 17 28 29.81 1010 2 3 0.00 0.00
7:15 pm 19:15 Windy with Snow Likely 28 -2.2 26 -3.3 92 92 N 20 31 29.83 1010 2 3 0.00 0.00
7:39 pm 19:39 Windy with Snow Likely 28 -2.2 26 -3.3 92 92 NNE 20 31 29.82 1010 2 3 0.00 0.00
7:53 pm 19:53 Cloudy with Light Snow 28 -2.2 26 -3.3 92 92 NNE 17 28 29.79 1009 2 3 0.00 0.00
8:04 pm 20:04 Cloudy with Light Snow 28 -2.2 26 -3.3 92 92 NNE 17 28 29.82 1010 2 2 0.00 0.00
8:22 pm 20:22 Cloudy with Light Snow 29 -1.7 27 -2.8 92 92 N 18 30 29.82 1010 2 3 0.00 0.00
8:34 pm 20:34 Cloudy with Light Snow 29 -1.7 27 -2.8 92 92 N 18 30 29.82 1010 2 3 0.00 0.00
8:53 pm 20:53 Cloudy with Light Snow 29 -1.7 27 -2.8 92 92 N 17 28 29.79 1009 2 3 0.00 0.00
9:01 pm 21:01 Cloudy with Light Snow 29 -1.7 27 -2.8 92 92 N 18 30 29.82 1010 2 3 0.00 0.00
9:12 pm 21:12 Cloudy with Light Snow 29 -1.7 27 -2.8 92 92 NNE 17 28 29.83 1010 3 4 0.00 0.00
9:44 pm 21:44 Cloudy with Light Snow 31 -0.6 27 -2.8 85 85 N 16 26 29.82 1010 2 3 0.00 0.00
9:48 pm 21:48 Cloudy with Light Snow 28 -2 27 -3 93 93 N 15 24 29.83 1010 2 3 0.00 0.00
9:53 pm 21:53 Cloudy with Light Snow 29 -1.7 27 -2.8 92 92 N 17 28 29.80 1009 2 3 0.00 0.00
10:15 pm 22:15 Cloudy with Light Snow 29 -1.7 26 -3.3 89 89 NNE 14 22 29.83 1010 2 2 0.00 0.00
10:41 pm 22:41 Cloudy with Light Snow 28 -2.2 26 -3.3 92 92 NNE 14 22 29.83 1010 2 3 0.00 0.00
10:53 pm 22:53 Cloudy with Light Snow 28 -2.2 26 -3.3 92 92 NNE 17 28 29.80 1009 3 4 0.00 0.00
11:00 pm 23:00 Cloudy with Light Snow 28 -2.2 26 -3.3 92 92 NNE 16 26 29.84 1011 3 5 0.00 0.00
11:23 pm 23:23 Cloudy with Light Snow 28 -2.2 26 -3.3 92 92 N 18 30 29.84 1011 4 6 0.00 0.00
11:31 pm 23:31 Cloudy 28 -2.2 25 -3.9 88 88 N 18 30 29.85 1011 7 11 0.00 0.00
11:53 pm 23:53 Cloudy 28 -2.2 25 -3.9 88 88 N 20 31 29.82 1010 10 16 0.00 0.00

Powered by AerisWeather